• In Hungary
  • List of Countries
  • For 7 days
  • Water Temperature
  • Satellite Maps
  • Weather Map
  • News
  • Weather Widgets
  • user-avatar
    Login

    Hourly Weather Viedma

    Today, 24 January, Wednesday

    Time Temperature Precipitation Wind Pressure Humidity
    00:00 +17°C° 0 mm 6 mps 759 mmHg 53%
    01:00 +16°C° 0 mm 6 mps 760 mmHg 53%
    02:00 +16°C° 0 mm 5 mps 760 mmHg 53%
    03:00 +16°C° 0 mm 5 mps 760 mmHg 53%
    04:00 +16°C° 0 mm 5 mps 761 mmHg 54%
    05:00 +15°C° 0 mm 4 mps 761 mmHg 54%
    06:00 +17°C° 0 mm 4 mps 762 mmHg 50%
    07:00 +18°C° 0 mm 4 mps 762 mmHg 46%
    08:00 +19°C° 0 mm 5 mps 762 mmHg 42%
    09:00 +20°C° 0 mm 4 mps 762 mmHg 39%
    10:00 +21°C° 0 mm 4 mps 763 mmHg 35%
    11:00 +21°C° 0 mm 4 mps 763 mmHg 32%
    12:00 +22°C° 0 mm 5 mps 763 mmHg 31%
    13:00 +22°C° 0 mm 5 mps 763 mmHg 30%
    14:00 +23°C° 0 mm 5 mps 763 mmHg 29%
    15:00 +23°C° 0 mm 6 mps 762 mmHg 31%
    16:00 +22°C° 0 mm 6 mps 762 mmHg 33%
    17:00 +22°C° 0 mm 6 mps 762 mmHg 35%
    18:00 +21°C° 0 mm 6 mps 762 mmHg 39%
    19:00 +20°C° 0 mm 6 mps 762 mmHg 44%
    20:00 +19°C° 0 mm 6 mps 762 mmHg 48%
    21:00 +17°C° 0 mm 6 mps 763 mmHg 50%
    22:00 +17°C° 0 mm 6 mps 763 mmHg 53%
    23:00 +17°C° 0 mm 6 mps 763 mmHg 55%

    Tomorrow, 25 January, Thursday

    Time Temperature Precipitation Wind Pressure Humidity
    00:00 +17°C° 0 mm 6 mps 763 mmHg 57%
    01:00 +16°C° 0 mm 6 mps 763 mmHg 58%
    02:00 +16°C° 0 mm 6 mps 762 mmHg 60%
    03:00 +16°C° 0 mm 6 mps 762 mmHg 61%
    04:00 +16°C° 0 mm 6 mps 762 mmHg 61%
    05:00 +17°C° 0 mm 6 mps 761 mmHg 62%
    06:00 +17°C° 0 mm 6 mps 762 mmHg 60%
    07:00 +19°C° 0 mm 6 mps 762 mmHg 58%
    08:00 +20°C° 0 mm 6 mps 762 mmHg 56%
    09:00 +22°C° 0 mm 6 mps 762 mmHg 50%
    10:00 +23°C° 0 mm 6 mps 762 mmHg 44%
    11:00 +26°C° 0 mm 6 mps 761 mmHg 38%
    12:00 +27°C° 0 mm 7 mps 761 mmHg 36%
    13:00 +28°C° 0 mm 7 mps 761 mmHg 34%
    14:00 +28°C° 0 mm 8 mps 760 mmHg 32%
    15:00 +28°C° 0 mm 8 mps 760 mmHg 34%
    16:00 +27°C° 0 mm 8 mps 759 mmHg 36%
    17:00 +26°C° 0 mm 8 mps 759 mmHg 37%
    18:00 +24°C° 0 mm 8 mps 758 mmHg 44%
    19:00 +23°C° 0 mm 8 mps 758 mmHg 50%
    20:00 +22°C° 0 mm 8 mps 758 mmHg 56%
    21:00 +21°C° 0 mm 7 mps 758 mmHg 58%
    22:00 +21°C° 0 mm 7 mps 758 mmHg 60%
    23:00 +21°C° 0 mm 7 mps 758 mmHg 62%

    Day after tomorrow, 26 January, Friday

    Time Temperature Precipitation Wind Pressure Humidity
    00:00 +21°C° 0 mm 7 mps 757 mmHg 64%
    01:00 +21°C° 0 mm 7 mps 757 mmHg 65%
    02:00 +21°C° 0 mm 7 mps 756 mmHg 67%
    03:00 +21°C° 0 mm 7 mps 756 mmHg 64%
    04:00 +21°C° 0 mm 7 mps 756 mmHg 62%
    05:00 +21°C° 0 mm 6 mps 755 mmHg 59%
    06:00 +22°C° 0 mm 6 mps 755 mmHg 54%
    07:00 +23°C° 0 mm 7 mps 755 mmHg 48%
    08:00 +24°C° 0 mm 7 mps 755 mmHg 42%
    09:00 +27°C° 0.1 mm 7 mps 755 mmHg 38%
    10:00 +29°C° 0.1 mm 7 mps 755 mmHg 35%
    11:00 +31°C° 0.1 mm 8 mps 754 mmHg 32%
    12:00 +33°C° 0 mm 8 mps 753 mmHg 30%
    13:00 +34°C° 0 mm 8 mps 752 mmHg 28%
    14:00 +35°C° 0 mm 8 mps 752 mmHg 27%
    15:00 +35°C° 0 mm 7 mps 751 mmHg 26%
    16:00 +36°C° 0 mm 7 mps 750 mmHg 26%
    17:00 +36°C° 0 mm 7 mps 749 mmHg 26%
    18:00 +34°C° 0 mm 7 mps 749 mmHg 30%
    19:00 +33°C° 0 mm 7 mps 749 mmHg 34%
    20:00 +30°C° 0 mm 7 mps 748 mmHg 38%
    21:00 +30°C° 0 mm 7 mps 748 mmHg 38%
    22:00 +30°C° 0 mm 7 mps 748 mmHg 37%
    23:00 +31°C° 0 mm 8 mps 748 mmHg 36%

    27 January, Saturday

    Time Temperature Precipitation Wind Pressure Humidity
    00:00 +31°C° 0 mm 8 mps 747 mmHg 38%
    01:00 +29°C° 0 mm 8 mps 747 mmHg 41%
    02:00 +29°C° 0 mm 8 mps 747 mmHg 43%
    03:00 +28°C° 0 mm 7 mps 747 mmHg 46%
    04:00 +27°C° 0 mm 7 mps 747 mmHg 50%
    05:00 +26°C° 0 mm 6 mps 747 mmHg 53%
    06:00 +26°C° 0 mm 7 mps 747 mmHg 53%
    07:00 +26°C° 0 mm 8 mps 748 mmHg 53%
    08:00 +26°C° 0 mm 9 mps 748 mmHg 53%
    09:00 +26°C° 0 mm 9 mps 748 mmHg 51%
    10:00 +27°C° 0 mm 9 mps 749 mmHg 49%
    11:00 +27°C° 0 mm 10 mps 749 mmHg 47%
    12:00 +28°C° 0 mm 9 mps 749 mmHg 42%
    13:00 +28°C° 0 mm 9 mps 749 mmHg 38%
    14:00 +28°C° 0 mm 8 mps 749 mmHg 34%
    15:00 +28°C° 0 mm 7 mps 749 mmHg 33%
    16:00 +28°C° 0 mm 6 mps 749 mmHg 31%
    17:00 +28°C° 0 mm 4 mps 749 mmHg 30%
    18:00 +27°C° 0 mm 4 mps 750 mmHg 33%
    19:00 +26°C° 0 mm 3 mps 750 mmHg 35%
    20:00 +25°C° 0 mm 3 mps 750 mmHg 38%
    21:00 +25°C° 0 mm 3 mps 750 mmHg 39%
    22:00 +25°C° 0 mm 2 mps 751 mmHg 39%
    23:00 +24°C° 0 mm 2 mps 751 mmHg 40%

    28 January, Sunday

    Time Temperature Precipitation Wind Pressure Humidity
    00:00 +24°C° 0 mm 2 mps 752 mmHg 42%
    01:00 +22°C° 0 mm 3 mps 752 mmHg 44%
    02:00 +22°C° 0 mm 3 mps 752 mmHg 46%
    03:00 +21°C° 0 mm 5 mps 753 mmHg 46%
    04:00 +21°C° 0 mm 6 mps 753 mmHg 46%
    05:00 +21°C° 0 mm 7 mps 754 mmHg 47%
    06:00 +21°C° 0 mm 7 mps 754 mmHg 44%
    07:00 +22°C° 0 mm 7 mps 755 mmHg 40%
    08:00 +22°C° 0 mm 8 mps 755 mmHg 37%
    09:00 +23°C° 0 mm 7 mps 755 mmHg 34%
    10:00 +24°C° 0 mm 7 mps 755 mmHg 31%
    11:00 +26°C° 0 mm 6 mps 755 mmHg 27%
    12:00 +27°C° 0 mm 6 mps 755 mmHg 25%
    13:00 +27°C° 0 mm 6 mps 755 mmHg 24%
    14:00 +28°C° 0 mm 6 mps 755 mmHg 22%
    15:00 +28°C° 0 mm 5 mps 754 mmHg 21%
    16:00 +29°C° 0 mm 5 mps 754 mmHg 20%
    17:00 +29°C° 0 mm 4 mps 754 mmHg 20%
    18:00 +28°C° 0 mm 4 mps 754 mmHg 23%
    19:00 +26°C° 0 mm 3 mps 754 mmHg 25%
    20:00 +25°C° 0 mm 3 mps 754 mmHg 28%
    21:00 +23°C° 0 mm 4 mps 754 mmHg 34%
    22:00 +22°C° 0 mm 5 mps 754 mmHg 39%
    23:00 +21°C° 0 mm 5 mps 754 mmHg 44%

    29 January, Monday

    Time Temperature Precipitation Wind Pressure Humidity
    00:00 +21°C° 0 mm 5 mps 754 mmHg 46%
    01:00 +21°C° 0 mm 5 mps 754 mmHg 47%
    02:00 +21°C° 0 mm 5 mps 753 mmHg 48%
    03:00 +20°C° 0 mm 5 mps 753 mmHg 52%
    04:00 +20°C° 0 mm 5 mps 753 mmHg 56%
    05:00 +20°C° 0 mm 5 mps 753 mmHg 60%
    06:00 +21°C° 0 mm 6 mps 753 mmHg 52%
    07:00 +23°C° 0 mm 6 mps 753 mmHg 45%
    08:00 +24°C° 0 mm 7 mps 753 mmHg 38%
    09:00 +28°C° 0 mm 7 mps 753 mmHg 33%
    10:00 +30°C° 0 mm 7 mps 753 mmHg 27%
    11:00 +34°C° 0 mm 7 mps 752 mmHg 22%
    12:00 +35°C° 0 mm 7 mps 751 mmHg 20%
    13:00 +36°C° 0 mm 7 mps 751 mmHg 17%
    14:00 +38°C° 0 mm 7 mps 750 mmHg 15%
    15:00 +38°C° 0 mm 7 mps 749 mmHg 16%
    16:00 +38°C° 0 mm 7 mps 749 mmHg 16%
    17:00 +38°C° 0 mm 7 mps 748 mmHg 17%
    18:00 +35°C° 0 mm 8 mps 748 mmHg 21%
    19:00 +34°C° 0 mm 9 mps 747 mmHg 25%
    20:00 +32°C° 0 mm 10 mps 747 mmHg 28%
    21:00 +31°C° 0.1 mm 10 mps 747 mmHg 33%
    22:00 +29°C° 0.1 mm 10 mps 746 mmHg 38%
    23:00 +28°C° 0.1 mm 10 mps 746 mmHg 42%
    Show more